www.pogodaiklimat.ru

Погода и климат >> Архив погоды >> Австрия >> Штоккерау


ПОГОДА в Штоккерау

  • Прогноз погоды в Штоккерау
  • Монитор погоды в Штоккерау

АРХИВ ПОГОДЫ в Штоккерау

Время (UTC), дата Ветер
(напр.,м/с)
 
Видим.   Явления Облачность Т
(С)
Тd
(С)
f
(%)
Тe
(С)
Тes
(С)
Комфортность P
(гПа)
Po
(гПа)
Тmin
(С)
Tmax
(С)
R
(мм)
R24
(мм)
S
(см)
16 11.09 ЮВ 4 н/о н/о +22.2 +10.8 48 +24 +24 комфорт 1022.5 998.7
17 11.09 ЮВ 2 н/о н/о +20.2 +11.7 58 +23 +23 комфорт 1022.9 998.9
18 11.09 В 2 н/о н/о +18.8 +11.2 61 +20 +20 1023.6 999.5 +11.9 +23.5
19 11.09 В 2 н/о н/о +17.9 +10.7 63 +18 +18 1024.3 1000.1
20 11.09 З 1 н/о н/о +15.4 +12.0 80 +16 +16 1025.3 1000.9
21 11.09 ЮВ 1 н/о н/о +15.0 +11.5 80 +16 +16 1025.6 1001.1
22 11.09 Ю 1 н/о н/о +15.2 +11.9 81 +16 +16 1025.9 1001.5
23 11.09 З 2 н/о н/о +15.0 +12.5 85 +15 +15 1026.4 1001.9
00 12.09 З 1 н/о н/о +14.6 +12.6 88 +15 +15 1026.6 1002.1
01 12.09 З 2 н/о н/о +13.9 +12.4 91 +13 +13 1026.8 1002.2
02 12.09 СЗ 2 н/о н/о +13.6 +12.1 91 +13 +13 1027.3 1002.7
03 12.09 З 2 н/о н/о +13.5 +12.1 91 +13 +13 1027.8 1003.2
04 12.09 З 2 н/о н/о +13.1 +11.7 91 +12 +12 1028.4 1003.7
05 12.09 З 2 н/о н/о +13.2 +12.0 92 +12 +12 1029.0 1004.3
06 12.09 З 2 н/о н/о +14.2 +12.4 89 +14 +14 1029.4 1004.8 +12.8 +19.2
07 12.09 З 3 н/о н/о +15.8 +13.0 83 +15 +15 1030.1 1005.6
08 12.09 З 2 н/о н/о +18.6 +12.9 69 +20 +20 1030.3 1006.0
09 12.09 З 3 н/о н/о +20.6 +12.5 60 +23 +23 комфорт 1030.4 1006.3
10 12.09 З 4 н/о н/о +21.7 +12.3 55 +24 +24 комфорт 1030.2 1006.2
11 12.09 З 5 н/о н/о +22.7 +12.9 54 +26 +26 жарко 1029.8 1005.9
12 12.09 З 7 н/о н/о +23.2 +11.2 47 +25 +25 комфорт 1029.6 1005.7
13 12.09 З 6 н/о н/о +23.6 +10.9 45 +25 +25 комфорт 1029.1 1005.3
14 12.09 З 5 н/о н/о +24.5 +11.5 44 +26 +26 жарко 1029.1 1005.3
15 12.09 З 5 н/о н/о +23.0 +11.7 49 +25 +25 комфорт 1029.3 1005.4
16 12.09 З 4 н/о н/о +22.1 +11.1 50 +24 +24 комфорт 1029.4 1005.4
17 12.09 З 4 н/о н/о +20.3 +11.6 57 +22 +22 комфорт 1029.6 1005.5
18 12.09 З 3 н/о н/о +18.8 +11.8 64 +20 +20 1029.9 1005.7 +14.0 +24.5
20 12.09 З 2 н/о н/о +16.5 +11.8 74 +17 +17 1030.9 1006.4
21 12.09 З 2 н/о н/о +15.8 +11.6 76 +16 +16 1031.1 1006.6
22 12.09 З 1 н/о н/о +15.3 +11.7 79 +16 +16 1031.2 1006.6
23 12.09 ЮЗ 1 н/о н/о +15.3 +11.8 80 +16 +16 1031.2 1006.6
00 13.09 З 1 н/о н/о +15.2 +11.9 81 +16 +16 1031.2 1006.6
01 13.09 З 1 н/о н/о +14.6 +11.9 84 +15 +15 1031.0 1006.4
02 13.09 З 1 н/о н/о +14.8 +11.9 83 +15 +15 1030.9 1006.3
03 13.09 З 1 н/о н/о +14.6 +11.9 84 +15 +15 1030.6 1006.0
04 13.09 З 1 н/о н/о +14.3 +11.7 84 +15 +15 1030.6 1006.0
05 13.09 З 1 н/о н/о +14.5 +11.8 84 +15 +15 1030.9 1006.3
06 13.09 З 1 н/о н/о +15.3 +12.1 81 +16 +16 1030.7 1006.2 +14.1 +19.0
07 13.09 З 2 н/о н/о +16.9 +12.3 74 +17 +17 1030.7 1006.3
08 13.09 З 2 н/о н/о +18.8 +13.3 70 +20 +20 1030.7 1006.5
09 13.09 З 2 н/о н/о +21.1 +13.5 62 +24 +24 комфорт 1030.3 1006.3
10 13.09 З 3 н/о н/о +23.0 +14.4 58 +27 +27 душно 1029.6 1005.7
11 13.09 З 3 н/о н/о +24.2 +14.2 54 +27 +27 жарко 1029.4 1005.6
12 13.09 СЗ 3 н/о н/о +24.1 +13.1 50 +26 +26 жарко 1029.0 1005.2
13 13.09 СЗ 3 н/о н/о +26.6 +13.3 44 +29 +29 жарко 1028.5 1004.9
14 13.09 СЗ 4 н/о н/о +25.8 +11.7 41 +27 +27 жарко 1028.3 1004.7
15 13.09 С 4 н/о н/о +25.0 +12.6 46 +27 +27 жарко 1028.2 1004.5
16 13.09 С 3 н/о н/о +24.8 +13.0 48 +27 +27 жарко 1028.2 1004.5
17 13.09 С 3 н/о н/о +23.4 +13.4 53 +27 +27 душно 1028.4 1004.6
18 13.09 С 4 н/о н/о +22.6 +13.1 55 +26 +26 жарко 1029.0 1005.1 +15.1 +26.7
19 13.09 С 3 н/о н/о +21.7 +13.6 60 +24 +24 комфорт 1029.4 1005.4
20 13.09 С 2 н/о н/о +21.2 +13.8 63 +24 +24 комфорт 1029.5 1005.5
21 13.09 С 2 н/о н/о +20.4 +13.8 66 +23 +23 комфорт 1029.8 1005.7
22 13.09 ЮЗ 1 н/о н/о +18.0 +13.9 77 +19 +19 1030.2 1005.9
23 13.09 З 2 н/о н/о +17.7 +14.0 79 +18 +18 1030.3 1006.0
00 14.09 З 1 н/о н/о +17.3 +14.0 81 +18 +18 1030.6 1006.2
01 14.09 СЗ 1 н/о н/о +16.9 +13.7 81 +18 +18 1030.6 1006.2
02 14.09 З 1 н/о н/о +15.7 +13.5 87 +16 +16 1030.8 1006.3
03 14.09 СЗ 1 н/о н/о +15.7 +13.5 87 +16 +16 1031.0 1006.5
04 14.09 СВ 2 н/о н/о +15.7 +13.0 84 +16 +16 1031.6 1007.1
05 14.09 С 2 н/о н/о +16.0 +13.1 83 +16 +16 1031.9 1007.4
06 14.09 С 3 н/о н/о +16.0 +11.4 74 +16 +16 1032.5 1008.0 +15.2 +22.6
07 14.09 СВ 2 н/о н/о +16.9 +11.5 70 +17 +17 1033.2 1008.7
08 14.09 СВ 3 н/о н/о +18.2 +10.4 60 +19 +19 1033.1 1008.7 0.0
09 14.09 СВ 1 н/о н/о +18.5 +10.3 59 +20 +20 1032.9 1008.6 0.0
10 14.09 СВ 2 н/о н/о +19.9 +10.6 55 +22 +22 комфорт 1032.6 1008.4
11 14.09 С 2 н/о н/о +20.6 +10.5 52 +23 +23 комфорт 1031.8 1007.7
12 14.09 С 1 н/о н/о +20.9 +10.4 51 +24 +24 комфорт 1031.6 1007.5 0.0
13 14.09 С 2 н/о н/о +21.6 +10.8 50 +23 +23 комфорт 1030.8 1006.8
14 14.09 С 3 н/о н/о +22.1 +10.2 47 +24 +24 комфорт 1030.4 1006.4
15 14.09 СВ 2 н/о н/о +22.0 +10.5 48 +24 +24 комфорт 1029.6 1005.6
16 14.09 СВ 1 н/о н/о +21.0 +10.7 52 +24 +24 комфорт 1028.9 1004.9
17 14.09 С 2 н/о н/о +19.6 +10.2 55 +21 +21 комфорт 1029.3 1005.1
18 14.09 В 1 н/о н/о +17.8 +10.7 63 +19 +19 1029.5 1005.2 +15.8 +22.7 0.0
19 14.09 ЮВ 1 н/о н/о +15.5 +11.0 75 +16 +16 1030.0 1005.5
20 14.09 В 2 н/о н/о +15.3 +10.2 72 +15 +15 1030.1 1005.6
21 14.09 В 2 н/о н/о +14.2 +8.0 66 +14 +14 1030.5 1005.8
22 14.09 СВ 2 н/о н/о +13.0 +8.1 72 +12 +12 1030.7 1005.9
23 14.09 ЮВ 1 н/о н/о +12.2 +8.0 75 +12 +12 1030.2 1005.4
00 15.09 СВ 2 н/о н/о +11.9 +7.0 72 +11 +11 1030.0 1005.1
01 15.09 СВ 2 н/о н/о +10.7 +7.3 79 +9 +9 1029.5 1004.6
02 15.09 СВ 2 н/о н/о +10.0 +7.0 82 +9 +9 1029.2 1004.2
03 15.09 СВ 2 н/о н/о +9.6 +6.8 83 +8 +8 1028.7 1003.7
04 15.09 СВ 2 н/о н/о +9.1 +6.5 84 +7 +7 1028.5 1003.4
05 15.09 В 2 н/о н/о +9.3 +6.6 83 +8 +8 1028.1 1003.1
06 15.09 СВ 1 н/о н/о +11.6 +7.9 78 +12 +12 1028.0 1003.2 +9.0 +17.9
07 15.09 ЮВ 4 н/о н/о +14.3 +8.2 67 +13 +13 1027.8 1003.2
08 15.09 ЮВ 2 н/о н/о +16.2 +9.0 62 +16 +16 1026.9 1002.5
09 15.09 ЮВ 2 н/о н/о +18.0 +9.1 56 +19 +19 1026.4 1002.2
10 15.09 В 1 н/о н/о +19.8 +9.5 51 +22 +22 комфорт 1026.0 1001.9
11 15.09 ЮВ 1 н/о н/о +20.9 +10.5 51 +24 +24 комфорт 1024.9 1000.9
12 15.09 штиль 0 н/о н/о +22.2 +10.9 49 +24 +24 комфорт 1024.0 1000.2
13 15.09 ЮВ 2 н/о н/о +23.2 +11.5 48 +26 +26 жарко 1023.3 999.6
14 15.09 Ю 1 н/о н/о +23.9 +12.2 48 +26 +26 жарко 1022.2 998.6
15 15.09 ЮВ 3 н/о н/о +23.6 +12.5 50 +26 +26 жарко 1021.3 997.7
16 15.09 ЮВ 4 н/о н/о +23.1 +13.2 54 +26 +26 жарко 1020.5 996.8
17 15.09 ЮВ 3 н/о н/о +21.3 +13.7 62 +24 +24 комфорт 1020.2 996.4
18 15.09 ЮВ 3 н/о н/о +19.5 +13.7 69 +21 +21 комфорт 1020.2 996.3 +10.9 +24.0
19 15.09 ЮВ 2 н/о н/о +18.7 +13.4 71 +20 +20 1020.3 996.3
20 15.09 Ю 1 н/о н/о +17.7 +13.5 76 +19 +19 1020.6 996.5
21 15.09 З 2 н/о н/о +16.5 +13.8 84 +17 +17 1020.7 996.5
22 15.09 З 2 н/о н/о +15.5 +13.2 86 +15 +15 1020.9 996.6
23 15.09 З 2 н/о н/о +15.3 +12.7 84 +15 +15 1020.8 996.5
00 16.09 З 2 н/о н/о +14.0 +12.4 90 +13 +13 1020.4 996.0
01 16.09 ЮЗ 1 н/о н/о +13.5 +11.8 89 +14 +14 1020.2 995.8
02 16.09 Ю 1 н/о н/о +13.6 +12.0 90 +14 +14 1019.9 995.5
03 16.09 ЮЗ 1 н/о н/о +13.5 +12.0 91 +14 +14 1019.7 995.3
04 16.09 штиль 0 н/о н/о +13.5 +12.0 91 +13 +13 1019.5 995.1
05 16.09 ЮЗ 1 н/о н/о +13.4 +12.2 92 +14 +14 1019.3 994.9
06 16.09 СЗ 1 н/о н/о +15.0 +12.5 85 +16 +16 1019.5 995.2 +12.7 +19.7
07 16.09 С 1 н/о н/о +17.5 +14.0 80 +19 +19 1019.8 995.7
08 16.09 ЮЗ 3 н/о н/о +19.3 +14.6 74 +21 +21 комфорт 1019.7 995.8
09 16.09 ЮЗ 1 н/о н/о +21.5 +14.7 65 +25 +25 комфорт 1019.3 995.6
10 16.09 СЗ 2 н/о н/о +23.4 +10.3 44 +25 +25 комфорт 1018.8 995.2
11 16.09 З 3 н/о н/о +24.5 +12.5 47 +26 +26 жарко 1018.0 994.5
12 16.09 З 2 н/о н/о +26.1 +12.2 42 +28 +28 жарко 1016.9 993.5
13 16.09 З 2 н/о н/о +27.3 +12.0 39 +29 +29 жарко 1016.1 992.9
14 16.09 СЗ 2 н/о н/о +26.4 +13.3 44 +28 +28 жарко 1015.5 992.2
15 16.09 СЗ 1 н/о н/о +25.9 +12.5 43 +27 +27 жарко 1015.1 991.8
16 16.09 С 2 н/о н/о +25.0 +12.4 45 +27 +27 жарко 1014.9 991.5
17 16.09 З 1 н/о н/о +23.0 +15.2 61 +27 +27 душно 1014.8 991.3
18 16.09 З 1 н/о н/о +21.9 +13.8 60 +25 +25 комфорт 1015.1 991.5 +14.5 +27.6
19 16.09 З 1 н/о н/о +20.5 +13.2 63 +24 +24 комфорт 1015.2 991.5
20 16.09 З 1 н/о н/о +19.8 +12.7 64 +23 +23 комфорт 1015.8 992.0
21 16.09 З 1 н/о н/о +19.9 +12.8 64 +23 +23 комфорт 1015.9 992.1
22 16.09 ЮЗ 2 н/о н/о +18.3 +14.1 76 +19 +19 1015.4 991.5
23 16.09 ЮЗ 1 н/о н/о +17.9 +13.8 77 +19 +19 1015.8 991.8 0.0
00 17.09 З 1 н/о н/о +17.6 +13.5 77 +19 +19 1015.2 991.2 0.0
01 17.09 ЮЗ 1 н/о н/о +17.8 +13.4 75 +19 +19 1015.1 991.1
02 17.09 СЗ 3 н/о н/о +19.6 +11.0 58 +21 +21 комфорт 1014.8 991.0
03 17.09 Ю 2 н/о н/о +17.9 +11.9 68 +18 +18 1014.9 990.9 0.0
04 17.09 З 1 н/о н/о +17.3 +12.6 74 +18 +18 1015.0 991.0
05 17.09 СЗ 1 н/о н/о +17.5 +12.4 72 +19 +19 1015.4 991.4
06 17.09 СЗ 3 н/о н/о +18.1 +12.3 69 +18 +18 1015.9 991.9 +17.2 +22.0 0.0
07 17.09 СЗ 3 н/о н/о +17.8 +12.4 71 +18 +18 1016.3 992.3
08 17.09 С 3 н/о н/о +17.3 +12.6 74 +17 +17 1016.6 992.6
09 17.09 СВ 2 н/о в посл. час осадки н/о +15.0 +12.4 84 +15 +15 1017.2 993.0 0.3
10 17.09 СВ 1 н/о н/о +15.3 +11.6 79 +16 +16 1016.9 992.7
11 17.09 СЗ 2 н/о н/о +15.0 +10.1 72 +15 +15 1016.9 992.6
12 17.09 штиль 0 н/о {осадки} н/о +16.0 +10.8 71 +16 +16 1016.3 992.1 0.3
13 17.09 ЮЗ 1 н/о н/о +16.2 +11.4 73 +17 +17 1015.5 991.4
14 17.09 ЮЗ 2 н/о н/о +16.5 +11.9 74 +17 +17 1014.8 990.7
15 17.09 ЮЗ 2 н/о н/о +16.9 +12.5 75 +17 +17 1014.3 990.3
16 17.09 ЮЗ 2 н/о н/о +17.5 +13.0 75 +18 +18 1013.8 989.8
17 17.09 СЗ 1 н/о н/о +17.0 +13.1 78 +18 +18 1014.0 990.0
18 17.09 ЮЗ 1 н/о н/о +15.1 +12.6 85 +16 +16 1014.6 990.4 +14.9 +18.2 0.3
19 17.09 СЗ 3 н/о н/о +15.7 +11.3 75 +15 +15 1015.1 991.0
20 17.09 З 4 н/о н/о +14.4 +9.9 74 +13 +13 1016.2 991.9
21 17.09 СЗ 3 н/о н/о +14.7 +9.6 71 +14 +14 1016.5 992.2
22 17.09 З 3 н/о н/о +13.7 +9.6 76 +13 +13 1016.9 992.5
23 17.09 СЗ 3 н/о н/о +13.6 +8.9 73 +13 +13 1017.7 993.3
00 18.09 С 4 н/о н/о +14.0 +6.9 62 +13 +13 1018.4 994.0
01 18.09 СЗ 3 н/о н/о +13.4 +6.5 63 +12 +12 1019.0 994.5
02 18.09 СЗ 8
{14}
н/о н/о +12.8 +2.1 48 +10 +10 1019.8 995.2
03 18.09 СЗ 8
{15}
н/о н/о +12.0 +2.3 51 +9 +9 1020.3 995.7
04 18.09 СЗ 5
{15}
н/о н/о +11.0 +2.7 57 +9 +9 1021.4 996.7
05 18.09 СЗ 2 н/о н/о +9.3 +3.0 65 +8 +8 1022.5 997.6
06 18.09 З 3
{15}
н/о н/о +10.6 +4.4 65 +9 +9 1023.0 998.2 +9.2 +15.9
07 18.09 СЗ 5 н/о н/о +11.7 +3.1 56 +9 +9 1023.6 998.9
08 18.09 СЗ 6 н/о н/о +12.8 +2.3 49 +11 +11 1023.9 999.2
09 18.09 СЗ 4 н/о н/о +13.9 +1.3 42 +13 +13 1024.2 999.6
10 18.09 СЗ 4 н/о н/о +15.2 +1.1 38 +14 +14 1024.1 999.6
11 18.09 СЗ 4 н/о н/о +16.1 -0.1 33 +16 +16 1023.6 999.2
12 18.09 СЗ 4 н/о н/о +16.9 -1.2 29 +17 +17 1023.0 998.7
13 18.09 СЗ 4 н/о н/о +18.2 -2.5 24 +18 +18 1022.4 998.2
14 18.09 СЗ 3 н/о н/о +18.6 -2.1 24 +19 +19 1022.2 998.1
15 18.09 С 5 н/о н/о +18.3 -1.2 27 +18 +18 1022.0 997.8
16 18.09 С 5 н/о н/о +17.3 -0.5 30 +17 +17 1021.9 997.7

 

Местоположение метеостанции Штоккерау (Австрия): широта 48.38 долгота 16.18 высота над уровнем моря 202 м.

В архиве по умолчанию представлена погода в Штоккерау за последнюю неделю. Архивные данные за месяц целиком и за предыдущие месяцы, начиная с января 2011 года, Вы можете получить, выбрав интересующий диапазон дат из раскрывающегося списка и нажав кнопку "Ввод!".


*Определитесь, кто Вы:
робот инопланетянин человек

Внимание! Время в таблицах - всемирное. Для получения местного времени необходимо прибавить поправку, которая равна 1 ч.

Смотрите также архив погоды в соседних городах и на ближайших метеорологических станциях:

Погода в Тульн-ан-дер-Донау (Австрия) (8 км)
Погода в Вене (Австрия) (20 км)
Погода в Мариябрунн (Австрия) (20 км)
Погода в Вене Донауфельд (Австрия) (23 км)
Погода в Вене город (Австрия) (24 км)
Погода в Лейзер Берге (Австрия) (25 км)
Погода в Вене электроподстанция (Австрия) (33 км)
Погода в Грос-Энцерсдорфе (Австрия) (35 км)
Погода в Лангенлойсе (Австрия) (37 км)
Погода в Мистельбахе (Австрия) (37 км)

Пояснения к столбцам:

Ветер - указаны скорость ветра в м/с - средняя за 10 мин, порывы в срок и между сроками (в фигурных скобках) и направление, откуда дует ветер: С - северный, СВ - северо-восточный, В - восточный, ЮВ - юго-восточный, Ю - южный, ЮЗ - юго-западный, З - западный, СЗ - северо-западный.
Видимость - горизонтальная дальность видимости в метрах или километрах. При видимости от 1 до 10 км при отсутствии осадков обычно наблюдается дымка, при ухудшении видимости до 1 км и менее - туман. В сухую погоду видимость может ухудшаться дымом, пылью или мглою.
Явления - указаны атмосферные явления, наблюдавшиеся в срок или в последний час перед сроком; фигурными скобками обозначены явления, наблюдавшиеся между сроками (за 1-3 часа до срока); квадратными скобками обозначены град или гололедные отложения с указанием их диаметра в мм.
Облачность - указаны через наклонную черту общая и нижняя облачность в баллах и высота нижней границы облаков в метрах; квадратными скобками обозначены формы облаков: Ci - перистые, Cs - перисто-слоистые, Cc - перисто-кучевые, Ac - высококучевые, As - высокослоистые, Sc - слоисто-кучевые, Ns - слоисто-дождевые, Cu - кучевые, Cb - кучево-дождевые. Подробнее классификацию облаков см. в Атласе облаков (PDF).
T - Температура воздуха - температура, измеренная на высоте 2 м над землей.
Td - Температура точки росы - температура, при понижении до которой содержащийся в воздухе водяной пар достигнет насыщения.
f - Относительная влажность воздуха - влажноcть воздуха, измеренная на высоте 2 м над землей.
Te - Эффективная температура - температура, которую ощущает одетый по сезону человек в тени. Характеристика душности погоды. При расчете учитывается влияние влажности воздуха и скорости ветра на теплоощущения человека.
Tes - Эффективная температура на солнце - температура, которую ощущает человек, с поправкой на солнечный нагрев. Характеристика знойности погоды. Зависит от высоты солнца над горизонтом, облачности и скорости ветра. Ночью, в пасмурную погоду, а также при ветре 12 м/с и более поправка равна нулю.
P - Атмосферное давление - приведенное к уровню моря атмосферное давление.
Po - Атмосферное давление - измеренное на уровне метеостанции атмосферное давление.
Tmin - Минимальная температура - минимум температуры воздуха на высоте 2 м над землей.
Tmax - Максимальная температура - максимум температуры воздуха на высоте 2 м над землей.
R - Количество осадков - Количество выпавших осадков за период времени, мм. При наведении курсора мыши на число - период времени, за который выпало указанное количество осадков.
R24 - Количество осадков - Количество выпавших осадков за 24 часа, мм.
S - Снежный покров - Высота снежного покрова, см. При наведении курсора мыши на число - состояние снежного покрова и степень покрытия местности в баллах.